This is the latest recevied weather packets stored in our database for station/object XW7RMR. If no packets are shown the sender has not sent any weather packets the latest 10 day(s).
| Time | Temp. | Humidity | Pressure | Rain* | Wind** | Luminosity | Snow |
|---|---|---|---|---|---|---|---|
| 1777483419 | 12.78° C | 61% | 1023.1 hPa | 0 mm | - | 593 W/m² | - |
| 1777483119 | 12.22° C | 62% | 1023 hPa | 0 mm | - | 578 W/m² | - |
| 1777482817 | 12.78° C | 63% | 1023.1 hPa | 0 mm | - | 564 W/m² | - |
| 1777482512 | 12.22° C | 62% | 1023 hPa | 0 mm | - | 552 W/m² | - |
| 1777482210 | 12.78° C | 63% | 1023.1 hPa | 0 mm | - | 535 W/m² | - |
| 1777481907 | 12.22° C | 62% | 1023 hPa | 0 mm | - | 521 W/m² | - |
| 1777481605 | 12.78° C | 62% | 1023.1 hPa | 0 mm | - | 508 W/m² | - |
| 1777481301 | 12.78° C | 60% | 1023.2 hPa | 0 mm | - | 493 W/m² | - |
| 1777480998 | 12.78° C | 60% | 1023.2 hPa | 0 mm | - | 480 W/m² | - |
| 1777480694 | 12.78° C | 62% | 1023.1 hPa | 0 mm | - | 463 W/m² | - |
| 1777480391 | 11.67° C | 61% | 1023.4 hPa | 0 mm | - | 449 W/m² | - |
| 1777480087 | 12.22° C | 62% | 1023.4 hPa | 0 mm | - | 435 W/m² | - |
| 1777479783 | 12.22° C | 62% | 1023.3 hPa | 0 mm | - | 422 W/m² | - |
| 1777479481 | 13.33° C | 58% | 1023.4 hPa | 0 mm | - | 412 W/m² | - |
| 1777479177 | 12.78° C | 63% | 1023.4 hPa | 0 mm | - | 396 W/m² | - |
| 1777478875 | 12.22° C | 63% | 1023.5 hPa | 0 mm | - | 377 W/m² | - |
| 1777478570 | 11.11° C | 67% | 1023.4 hPa | 0 mm | - | 361 W/m² | - |
| 1777478268 | 11.67° C | 66% | 1023.4 hPa | 0 mm | - | 347 W/m² | - |
| 1777477964 | 11.11° C | 69% | 1023.5 hPa | 0 mm | - | 329 W/m² | - |
| 1777477660 | 11.67° C | 66% | 1023.6 hPa | 0 mm | - | 309 W/m² | - |
| 1777477357 | 11.67° C | 68% | 1023.7 hPa | 0 mm | - | 296 W/m² | - |
| 1777477053 | 12.22° C | 63% | 1023.8 hPa | 0 mm | - | 277 W/m² | - |
| 1777476751 | 11.67° C | 65% | 1023.8 hPa | 0 mm | - | 262 W/m² | - |
| 1777476447 | 11.67° C | 67% | 1023.6 hPa | 0 mm | - | 249 W/m² | - |
| 1777476144 | 11.67° C | 65% | 1023.8 hPa | 0 mm | - | 234 W/m² | - |
* Rain latest hour (hover to see other rain measurements)
** Current wind speed in m/s (hover to see current wind gust speed)